Powrót do katalogu

ELEKTRON 3

AktywnyNaukaHEO
NORAD 829·PAYLOAD·🇷🇺 Russia

Wystrzelony Jul 10, 1964 z Baikonur Cosmodrome

Loading…

Następne Przeloty (najbliższe 24 godziny)

TLE

ŚwieżeSource: Space-Track

Epoka: Sep 13, 2026, 21:05 UTC

1   829U 64038A   26256.87858086  .00000682  00000-0  19824-3 0  9994
2   829  60.8031  77.9286 2938076  12.9648 353.2568  9.21539341 23625

Śledź ELEKTRON 3 w czasie rzeczywistym z AllMySat

Download on the App Store